Location: Andrest
(43.3200°N, 0.0641°E)
Time: 04:07:17
(UTC+00:00)

SL-8 Rocket - Pass Details

Date: 29 April 2021
Orbit: 958 x 989 km, 82.9° (Epoch: 11 May)

Event Time Altitude Azimuth Distance (km) Brightness Sun altitude
Rises 00:09:04 0° 353° (N) 3,704 8.1 -32.1°
Reaches altitude 10° 00:11:36 10° 355° (N) 2,755 7.2 -32.1°
Enters shadow 00:17:23 72° 32° (NNE) 1,038 4.1 -32.0°
